GFSNE_sfc_temp_000.txt.gz
Temp
55 56 56 59 58 58 57 56 51 46 50 56 55 51 53 54 53 54 55 55 50 50 52 54 56 57 58 59 60 61 62 61 60 59 59 58 58 57
55 54 54 56 58 57 56 55 54 51 47 56 57 56 51 50 51 51 52 51 48 48 48 50 53 54 55 56 57 57 58 58 58 57 57 57 56 55
52 53 53 54 54 56 55 54 53 53 49 53 57 57 54 50 48 49 51 51 50 45 46 48 50 50 51 52 52 53 54 54 55 55 55 55 54 54
48 49 50 54 52 53 54 52 52 54 51 49 54 54 51 53 50 47 48 49 50 47 45 47 48 49 48 48 48 49 49 50 50 51 51 52 52 52
47 47 48 49 49 51 52 52 52 53 53 52 51 55 54 52 46 45 44 45 48 47 44 45 47 48 47 47 47 46 46 46 46 46 47 47 49 49
42 42 43 44 44 47 49 49 51 50 51 51 50 52 53 51 45 42 40 42 40 43 45 45 45 46 46 46 46 45 45 44 43 43 42 42 43 45
38 39 40 40 40 41 43 45 47 47 48 49 48 50 50 49 41 42 41 38 37 38 38 41 44 44 44 43 44 44 43 42 42 41 41 40 40 41
34 37 39 39 39 38 38 38 38 39 40 45 47 48 49 51 49 41 38 35 34 35 35 33 38 41 41 42 42 41 41 41 41 41 40 40 39 39
35 36 38 41 39 40 38 36 36 37 36 40 41 48 49 53 53 42 38 40 37 34 38 31 32 33 37 39 39 39 39 39 40 39 39 38 38 38
34 36 36 37 38 39 39 38 39 41 41 41 44 46 52 55 55 48 41 38 35 34 33 29 31 29 32 33 38 38 38 37 38 38 39 38 38 37
35 35 36 36 36 37 36 35 37 38 39 40 41 42 41 40 41 50 36 35 31 31 30 29 29 28 31 32 33 36 36 37 38 39 39 38 37 36
34 35 34 35 34 34 35 34 33 36 40 36 36 39 41 43 37 43 41 37 33 30 32 27 27 27 24 29 32 34 35 37 38 38 38 37 36 37
34 36 37 35 34 33 34 35 35 39 38 39 39 38 39 44 44 39 39 43 35 34 34 34 29 26 28 26 30 31 32 32 35 37 36 36 35 38
32 35 35 33 31 32 32 32 33 35 37 36 37 36 35 37 43 46 40 39 43 44 35 36 31 31 28 25 24 28 29 30 31 32 34 34 33 31
33 32 30 31 31 31 32 32 32 35 34 34 36 38 39 40 41 39 32 32 32 33 34 35 33 33 31 28 24 25 25 27 33 34 33 31 30 31
32 33 31 30 32 33 34 32 33 34 34 36 38 40 42 34 33 34 30 28 26 26 30 32 31 31 29 29 28 24 26 23 28 29 29 30 34 35
29 31 32 31 32 34 34 33 34 34 35 37 36 34 35 31 31 31 31 30 28 26 27 29 31 32 31 29 26 26 26 27 28 28 27 27 31 35
31 29 29 29 29 30 30 32 33 33 35 35 35 35 34 32 29 30 30 31 26 26 28 29 29 27 27 26 31 28 29 29 30 28 28 27 31 34
30 29 28 27 28 28 28 29 29 31 31 31 32 32 32 32 31 31 29 30 26 27 28 29 28 29 24 22 26 26 30 29 26 25 29 30 31 33
32 29 27 27 28 28 27 27 27 29 29 29 29 29 29 29 29 29 29 27 26 25 25 27 29 31 30 24 22 24 30 26 26 27 27 29 31 22
31 29 29 30 29 27 27 27 26 26 28 29 28 29 29 29 28 28 27 26 25 26 25 27 25 26 26 25 18 18 19 21 26 27 27 27 26 28
29 30 30 29 28 29 29 29 27 26 26 28 28 28 28 27 25 24 24 25 26 27 23 23 27 29 28 26 20 19 19 21 18 18 19 20 25 25
29 30 30 31 31 31 31 29 27 27 28 28 28 27 27 26 26 26 26 25 23 24 25 25 26 28 26 25 22 22 17 18 22 22 21 17 18 19

GFSNE_sfc_temp_003.txt.gz
Temp
55 55 56 57 58 59 59 59 54 48 51 57 58 64 60 56 54 54 54 54 50 49 50 53 56 58 58 59 60 61 62 62 62 62 62 62 61 61
54 54 54 56 57 58 58 56 57 53 48 56 58 61 62 57 55 52 53 51 49 47 47 49 51 55 56 56 57 58 60 60 61 61 60 60 60 60
52 52 52 54 53 55 55 54 52 53 49 54 58 60 59 57 55 53 52 50 51 46 45 47 48 50 52 52 53 54 55 57 58 58 58 58 58 59
50 50 50 54 52 53 53 51 52 53 51 48 54 56 57 60 59 55 52 51 49 48 45 45 47 47 48 49 49 50 51 52 52 53 55 55 56 57
48 48 48 49 48 50 51 51 51 53 52 50 50 55 55 58 56 55 52 51 49 49 45 43 45 46 47 47 48 48 48 48 48 49 50 50 52 53
45 44 44 44 44 45 46 47 50 49 49 49 49 50 53 55 56 51 43 45 44 44 44 43 43 45 46 47 47 48 47 47 47 46 45 44 45 47
40 40 40 40 40 40 41 41 42 44 46 46 46 47 48 49 49 50 46 44 39 41 40 38 42 45 47 46 49 48 47 46 46 45 45 43 43 44
34 36 38 38 38 37 37 37 38 38 37 38 43 43 46 49 52 50 46 37 37 38 37 36 38 38 43 48 46 46 45 45 45 44 43 42 42 42
33 35 36 39 38 39 38 37 36 36 35 39 35 38 44 49 51 49 45 40 41 37 38 32 34 33 33 38 43 43 43 43 43 42 41 40 39 38
33 35 35 35 37 37 37 37 39 40 40 40 40 41 43 48 46 47 47 43 35 36 38 31 31 31 33 34 40 42 41 41 40 40 39 37 37 37
35 35 36 35 35 36 33 32 34 36 40 39 38 39 41 41 41 42 38 36 31 32 33 32 29 29 32 32 32 37 39 39 38 38 36 36 36 36
34 35 34 34 33 33 32 32 31 34 37 38 38 37 37 41 39 40 37 38 35 30 33 30 29 30 27 31 32 32 32 34 35 35 35 35 35 35
33 34 35 34 33 33 34 33 33 36 36 37 36 36 37 41 42 44 40 37 35 38 36 32 29 28 28 29 31 32 32 32 32 33 35 34 35 37
31 33 34 33 32 32 31 31 32 32 34 33 35 36 38 36 42 45 45 41 37 41 38 37 30 29 27 27 27 30 31 32 32 32 32 33 35 30
33 32 33 32 32 32 32 31 31 32 32 32 33 37 40 43 43 43 37 33 33 34 36 37 36 33 33 29 27 27 28 29 31 30 30 30 30 29
33 33 33 31 31 32 33 34 32 33 33 33 35 36 41 41 40 41 33 31 30 30 33 33 36 34 31 30 29 26 28 26 28 29 29 28 27 28
30 32 33 33 32 34 35 33 33 34 33 34 36 38 35 36 35 33 32 31 27 30 29 31 32 33 32 29 26 26 26 26 28 27 26 25 26 27
32 30 30 30 29 30 32 33 34 34 35 35 33 36 34 33 32 32 32 31 28 28 28 29 29 28 28 28 31 26 26 26 27 27 27 24 24 31
30 29 28 28 29 29 29 31 31 33 34 34 34 34 34 33 32 31 32 30 28 28 28 28 29 29 25 23 25 31 28 28 27 25 26 26 27 30
30 29 28 28 28 28 29 28 30 30 31 31 32 33 33 33 31 31 31 30 29 28 27 28 30 30 29 24 23 24 31 28 26 24 26 30 24 26
30 29 29 29 29 29 28 28 29 29 30 30 30 30 31 31 31 31 30 30 29 28 26 27 28 31 29 27 21 20 20 26 29 28 29 27 26 26
29 29 30 30 29 29 29 28 28 28 29 29 29 30 30 30 29 29 28 27 28 27 24 26 28 29 28 26 21 19 19 20 23 23 23 23 24 23
27 28 28 29 29 29 28 28 27 27 27 28 29 28 28 26 27 28 27 24 25 24 24 23 25 28 27 25 22 20 18 19 21 21 20 19 20 20

GFSNE_sfc_temp_006.txt.gz
Temp
46 46 47 48 48 49 50 49 45 40 42 48 46 51 50 51 52 51 52 52 50 48 49 50 53 55 58 59 60 61 62 62 62 62 62 63 63 64
47 46 46 47 48 48 49 49 49 45 41 48 50 47 49 52 51 50 50 50 49 48 47 47 49 52 55 57 57 58 59 60 61 61 61 62 63 63
45 45 45 46 45 46 46 47 46 46 41 45 49 49 46 46 48 48 49 48 50 47 45 46 46 47 49 53 54 55 57 58 58 59 60 61 62 62
43 43 43 48 44 45 45 44 45 46 43 41 45 46 46 46 48 46 49 49 46 48 45 45 45 45 46 46 49 51 53 54 55 56 57 59 60 60
42 42 42 42 41 42 43 43 44 47 44 42 42 46 47 44 43 45 46 46 46 48 45 43 44 45 45 45 46 48 50 50 50 50 52 54 55 56
41 40 40 39 38 38 39 39 41 39 40 39 41 42 44 45 42 39 39 39 40 46 46 43 43 44 44 44 44 46 49 50 49 49 47 46 48 51
37 38 37 37 39 38 37 36 36 36 37 36 37 39 40 40 38 39 38 38 37 39 40 42 40 44 45 44 45 45 47 49 48 48 48 46 45 46
33 34 35 36 36 37 37 37 36 33 32 32 33 33 35 38 39 37 36 32 36 34 36 38 36 39 39 44 45 44 45 47 48 47 46 46 46 45
31 32 33 36 36 36 36 36 36 36 34 34 32 34 34 35 37 35 34 33 37 34 35 33 33 34 34 39 41 42 44 45 47 47 46 45 43 42
31 31 31 31 33 34 34 33 33 35 37 37 34 35 36 39 39 39 36 34 35 34 33 33 31 31 33 34 40 42 43 44 45 45 44 43 41 41
32 32 33 32 34 36 32 30 30 32 38 38 39 39 39 39 39 37 33 33 32 32 32 30 29 29 30 31 33 39 40 42 43 43 43 42 41 39
33 33 34 33 33 33 31 30 29 30 32 34 35 36 38 37 37 36 35 33 32 30 32 27 28 29 27 30 31 33 34 36 40 40 39 39 37 36
30 30 32 34 34 33 33 31 30 33 33 33 33 34 35 34 35 36 37 36 33 33 30 28 28 27 28 27 30 31 32 32 32 33 37 37 37 35
29 30 31 33 33 33 32 32 32 31 32 31 30 31 32 34 35 36 37 38 38 36 33 31 25 27 28 27 25 30 31 32 32 31 32 33 33 33
30 30 32 32 33 31 32 32 31 29 28 29 30 31 33 34 34 36 34 36 34 34 33 34 29 30 31 27 27 28 28 30 31 31 30 29 26 26
30 30 30 29 30 30 30 31 31 30 29 29 30 32 33 34 34 34 32 31 29 29 32 32 32 31 28 30 30 27 28 26 29 30 30 29 28 29
30 30 29 28 28 28 30 31 29 28 29 30 30 31 32 32 33 32 31 30 28 28 28 30 31 31 30 30 27 27 27 27 29 28 27 24 26 28
29 27 25 25 26 27 27 29 28 27 28 27 27 30 31 32 31 30 31 29 28 27 27 27 27 26 27 27 30 26 26 27 27 27 26 24 24 27
27 25 25 25 25 26 26 28 28 31 31 29 28 31 30 29 30 30 29 28 27 27 27 27 26 26 23 20 24 32 25 26 25 25 25 25 24 25
28 26 25 25 25 25 26 26 28 29 29 29 31 32 29 28 28 28 28 27 26 27 26 27 25 27 25 21 20 20 30 26 25 24 24 23 24 29
26 26 27 26 25 26 25 26 27 27 28 28 29 29 29 29 29 28 25 26 26 26 24 25 26 28 25 23 19 16 19 30 28 25 25 21 20 21
24 25 26 26 27 25 25 25 25 26 27 27 26 26 27 28 27 26 26 25 25 24 21 23 25 26 23 22 16 14 15 18 24 25 25 24 21 18
21 22 24 25 25 26 26 25 24 24 25 26 25 25 23 22 24 23 22 22 22 21 21 22 25 25 23 21 18 17 16 16 18 15 14 22 23 23

GFSNE_sfc_temp_009.txt.gz
Temp
42 42 43 44 45 46 46 45 41 36 38 45 45 49 52 47 49 49 50 50 50 48 48 49 51 52 53 55 55 60 60 61 62 62 62 63 63 64
43 40 41 43 44 43 44 44 43 40 36 44 46 46 47 48 48 48 48 50 48 47 46 47 48 49 50 51 52 54 59 59 61 61 61 62 62 63
40 40 40 41 41 42 42 43 42 42 37 41 45 47 44 46 47 44 47 47 47 46 44 45 45 46 46 46 47 49 52 57 58 59 60 61 61 62
40 37 39 44 40 40 40 40 40 41 39 37 41 43 42 43 44 43 46 47 46 46 46 44 44 45 45 44 44 44 45 49 54 56 57 59 60 61
39 38 39 39 38 38 37 37 39 42 39 37 36 39 40 40 42 41 41 41 44 47 45 41 42 43 44 44 44 44 44 44 47 52 53 54 56 57
35 35 35 34 33 33 35 34 36 35 36 35 35 37 38 40 38 39 37 36 38 43 44 43 41 43 44 44 44 44 44 45 44 47 49 50 51 53
32 34 35 36 39 38 36 34 34 33 33 33 32 34 35 35 36 35 34 34 35 37 36 37 37 38 41 44 44 45 44 44 44 44 46 48 49 51
30 32 33 35 35 36 36 36 35 31 30 30 31 30 32 34 36 34 33 31 28 33 32 35 35 37 37 42 44 43 44 44 44 44 44 47 48 48
29 29 31 34 34 33 34 35 34 35 34 33 30 30 31 34 35 31 33 32 31 33 33 34 26 32 32 36 38 39 40 43 43 43 43 45 47 47
30 30 30 30 31 31 31 30 31 33 34 35 34 33 34 35 34 35 34 34 33 34 34 32 25 26 25 29 37 38 40 42 43 43 43 44 45 45
32 32 33 31 33 35 32 30 29 31 35 36 37 37 37 37 37 33 30 30 30 33 32 31 29 28 24 24 29 36 37 40 41 42 43 43 44 45
30 31 33 32 34 34 32 30 28 30 31 31 32 34 37 36 36 35 32 29 29 27 28 32 28 29 26 21 25 32 33 36 40 41 43 44 44 46
28 29 31 32 33 33 33 31 30 32 32 31 31 31 32 33 34 35 34 33 30 30 32 32 28 28 26 23 23 31 32 33 34 36 41 42 42 44
28 30 30 31 32 32 32 32 32 31 31 30 30 30 30 31 33 35 35 35 35 34 33 34 30 28 26 25 25 25 30 32 33 32 33 34 37 39
31 31 32 32 32 30 32 32 31 30 28 28 28 30 31 33 34 34 34 34 35 35 35 33 32 30 28 21 25 22 28 29 31 30 30 30 30 31
30 30 29 30 28 28 28 30 31 31 30 28 28 30 32 32 31 33 32 32 32 31 33 33 32 31 29 26 29 27 28 26 29 28 27 27 27 28
28 27 25 24 25 26 27 29 26 25 29 28 27 28 29 30 31 32 32 30 28 28 28 30 31 30 29 29 27 28 27 28 29 28 27 26 27 27
28 21 22 23 22 24 25 27 28 25 25 26 26 27 29 30 30 31 31 30 29 27 27 27 27 27 27 26 30 26 27 27 27 27 27 25 25 27
25 24 21 21 23 24 24 25 26 28 30 25 27 30 30 28 29 29 29 28 25 25 27 26 26 22 20 16 23 29 25 26 26 25 26 25 25 26
25 23 24 22 23 23 24 24 25 26 28 28 30 27 27 26 26 27 27 22 24 25 24 25 25 22 21 21 19 20 29 25 25 24 23 23 26 28
21 23 23 23 24 24 23 23 24 25 24 25 26 27 24 20 24 24 20 18 19 22 23 23 23 23 24 24 19 16 19 30 28 25 23 22 21 21
19 20 20 21 21 23 23 23 23 24 24 24 24 23 24 25 24 24 21 22 23 20 20 22 24 25 20 21 16 14 16 19 24 26 26 25 21 18
17 17 17 17 18 19 20 23 23 21 22 22 23 23 23 22 23 21 20 20 21 21 22 22 23 23 20 19 17 14 13 15 16 15 17 24 26 26

GFSNE_sfc_temp_012.txt.gz
Temp
42 41 41 42 41 42 42 41 38 32 35 41 43 47 47 47 47 45 46 49 48 48 48 48 50 52 52 53 54 53 56 58 61 62 62 63 63 64
41 39 40 41 41 42 42 41 40 37 33 41 43 46 47 49 49 48 44 49 48 47 46 46 47 48 48 50 50 51 53 54 53 59 60 61 62 63
39 39 39 39 39 39 39 40 39 38 34 38 42 44 43 44 46 46 47 45 45 44 43 44 44 45 44 45 46 46 48 50 52 51 58 60 61 63
37 38 38 42 38 37 36 37 38 38 36 33 38 40 40 42 42 42 45 48 45 47 46 44 44 44 42 44 42 43 44 45 46 49 49 57 59 61
37 36 36 36 34 33 33 32 33 38 36 34 33 36 38 38 40 41 41 42 44 47 45 44 42 43 43 42 42 43 44 43 43 44 45 46 54 57
33 32 33 33 33 33 33 33 34 33 33 32 32 34 36 38 37 35 35 37 38 43 45 43 42 41 41 42 43 43 44 44 44 43 43 42 43 50
31 32 32 34 37 36 35 33 33 31 31 30 30 31 33 33 33 34 33 32 34 35 37 39 38 38 39 42 43 44 43 43 42 43 44 43 43 44
30 31 31 34 33 35 35 35 34 31 29 29 29 28 29 31 33 32 33 32 30 30 32 32 34 34 37 36 41 42 42 42 43 43 43 43 43 43
29 29 30 32 33 32 33 34 34 34 33 31 29 30 30 32 32 29 30 30 30 34 33 32 31 33 32 36 39 39 40 40 40 41 42 42 42 41
30 30 30 31 32 32 31 30 31 31 32 33 32 32 34 34 33 33 32 31 31 33 34 31 31 29 23 27 37 39 39 39 40 40 41 41 41 41
31 31 31 31 33 35 32 30 30 30 34 35 36 36 36 36 35 32 29 28 26 28 31 33 33 25 24 23 27 36 37 37 38 37 39 41 41 41
28 30 32 31 32 32 30 29 28 30 31 31 32 34 35 34 35 33 31 28 27 24 27 30 28 27 29 18 21 23 25 34 37 37 38 40 41 42
28 29 30 32 33 32 32 29 29 32 31 30 31 31 31 30 31 33 34 32 29 28 30 31 26 23 27 25 19 21 25 28 33 34 37 40 40 42
28 29 30 32 33 32 32 32 32 31 30 29 29 29 29 30 31 32 33 34 35 33 32 30 26 24 21 18 20 20 20 23 32 32 32 36 39 40
30 31 32 32 31 29 31 31 30 30 29 28 27 28 30 32 32 31 30 31 32 33 34 31 30 26 26 22 26 19 19 21 23 28 28 30 32 35
28 28 25 27 24 26 27 28 29 29 29 29 28 29 31 30 30 30 30 32 31 31 34 34 33 32 26 24 25 20 21 20 21 27 27 27 29 30
28 23 23 23 24 25 26 27 29 28 25 28 27 26 27 28 29 28 31 30 29 30 30 32 33 32 30 28 25 26 26 25 23 27 27 25 26 27
26 22 18 21 22 23 23 24 25 27 26 21 18 20 22 25 24 26 29 30 29 28 27 28 28 27 27 26 30 26 26 26 23 27 27 24 24 26
23 22 20 21 22 22 22 23 23 25 29 29 27 29 29 27 30 29 28 27 26 26 27 27 28 27 23 21 22 29 25 26 24 25 26 25 24 25
21 20 19 20 21 22 22 21 22 24 23 25 27 25 26 23 21 24 26 23 24 24 24 25 25 25 22 19 16 16 29 25 25 23 23 25 26 28
18 19 18 18 18 19 20 21 22 22 22 23 23 23 22 16 20 20 21 23 21 22 22 22 23 25 24 22 15 15 22 30 27 24 24 22 21 21
16 16 17 16 16 16 17 19 21 22 21 20 21 21 22 23 23 24 22 21 22 19 21 22 25 25 21 19 11 8 16 20 25 26 27 25 22 18
14 14 14 14 14 14 15 15 20 20 20 19 19 20 20 20 20 19 18 20 22 22 22 21 22 21 19 18 16 12 14 16 16 16 15 24 27 26

GFSNE_sfc_temp_015.txt.gz
Temp
41 40 38 38 38 39 40 39 35 31 33 38 38 43 43 43 45 45 46 47 48 48 49 49 50 53 53 53 53 54 55 55 57 58 61 62 63 64
40 38 37 38 39 39 39 39 39 35 31 37 39 39 41 46 45 44 45 48 47 46 46 47 46 47 48 49 51 52 52 53 53 53 54 60 61 63
38 38 37 38 38 37 37 38 37 36 32 36 38 40 38 39 42 43 44 43 44 45 45 43 44 44 45 45 45 46 47 49 51 51 52 54 59 62
36 36 36 40 37 36 35 34 35 36 34 32 36 36 37 38 39 38 42 45 42 45 45 45 45 44 43 42 42 42 43 44 45 48 50 50 53 57
35 34 34 34 32 32 32 31 32 36 34 32 32 34 35 36 36 38 38 39 42 45 44 44 44 45 43 42 42 41 41 41 41 42 44 45 48 49
32 32 31 31 30 31 32 32 33 32 32 31 31 31 33 36 35 33 33 35 36 41 43 42 43 45 43 42 41 40 43 43 43 43 42 41 41 45
31 31 32 33 36 35 33 31 31 30 30 30 30 30 30 30 29 31 31 32 33 34 35 37 38 39 41 42 42 43 44 43 42 41 41 42 41 42
29 30 31 33 32 34 34 34 34 30 29 29 28 28 29 30 31 30 28 28 27 30 33 34 35 34 36 38 41 42 43 43 43 43 42 42 41 42
28 28 30 32 33 31 32 33 33 33 32 31 28 28 28 30 30 28 29 28 28 31 29 30 30 32 36 36 39 41 41 41 41 41 41 40 40 40
29 29 29 29 31 32 32 30 30 31 33 32 30 31 31 32 33 32 30 30 30 30 30 28 31 33 27 30 36 39 40 40 40 40 40 40 39 40
29 29 29 29 31 33 30 28 28 29 34 35 36 34 35 35 34 32 28 27 25 27 25 28 28 30 29 28 30 37 39 39 39 38 38 38 38 39
28 30 32 31 32 32 29 28 27 29 30 31 31 33 34 34 34 33 31 27 27 24 24 26 24 25 24 21 21 22 24 34 36 37 38 37 38 38
27 28 30 32 32 32 32 29 29 31 30 30 30 30 31 31 31 33 33 31 28 27 29 28 23 23 28 24 18 19 26 30 31 33 35 37 37 38
27 29 29 32 32 31 30 30 32 30 30 29 28 29 29 29 31 32 32 32 33 32 32 31 28 27 27 28 28 17 17 18 25 23 25 33 36 37
30 30 30 30 29 27 28 29 28 28 28 27 27 28 30 31 32 31 31 32 32 33 33 32 29 26 25 23 20 23 18 17 20 16 18 24 29 31
28 28 26 27 25 26 26 27 27 28 28 28 28 29 30 29 29 30 29 29 29 29 33 33 33 32 29 28 25 26 17 22 22 16 17 17 24 29
25 25 23 21 22 23 24 25 25 25 27 23 24 25 26 27 28 28 29 29 28 28 29 31 33 32 32 32 28 27 19 20 18 19 20 16 19 25
24 21 18 17 19 21 21 21 22 23 24 28 25 21 22 25 25 25 29 29 28 28 29 30 30 28 27 27 30 24 25 24 20 18 18 17 19 26
20 19 16 15 16 19 20 21 20 22 24 25 27 28 28 28 28 27 28 28 28 23 25 27 28 27 24 23 24 29 24 23 19 18 18 18 21 25
19 18 16 16 16 17 18 21 22 21 20 21 22 23 24 25 25 26 26 23 23 22 22 25 25 26 25 23 21 21 29 23 18 14 18 23 26 28
16 16 16 16 15 15 14 15 21 21 18 18 18 19 20 23 25 24 22 24 24 24 23 23 23 25 23 23 18 15 21 29 26 16 19 19 20 22
14 14 15 15 14 13 13 13 17 20 19 18 17 16 17 20 21 22 21 21 19 19 20 22 25 25 22 21 14 12 12 17 23 25 26 25 21 19
12 12 12 12 13 13 14 13 13 16 19 17 15 16 14 12 16 14 13 16 15 14 18 18 20 20 19 19 17 14 12 13 15 18 17 25 27 27

GFSNE_sfc_temp_018.txt.gz
Temp
39 39 40 41 40 41 41 38 36 31 33 37 37 41 43 43 44 44 43 45 46 46 47 48 50 51 51 53 55 55 55 56 56 56 56 60 61 62
41 39 39 39 39 39 39 38 37 35 31 37 38 39 41 45 44 44 43 47 46 45 45 46 47 47 46 47 49 52 53 54 54 54 53 56 60 61
39 37 37 37 36 36 37 37 36 35 32 36 37 39 38 38 41 41 42 41 42 44 44 45 45 45 45 44 44 46 48 49 51 52 53 53 55 61
36 35 35 39 35 35 34 33 33 35 33 31 35 35 35 38 39 38 41 43 41 44 43 44 44 44 44 44 43 43 44 45 46 46 49 51 52 53
33 32 33 33 31 32 32 32 32 35 34 32 32 35 35 35 37 37 38 39 41 44 43 43 43 44 45 44 43 42 42 42 41 41 43 43 46 50
32 32 31 31 30 30 31 30 32 30 31 30 30 31 32 35 34 33 32 35 35 41 42 42 42 43 44 44 43 43 42 42 41 42 42 39 40 42
31 32 32 32 36 35 33 31 30 29 30 30 30 30 31 31 30 32 31 32 34 35 35 37 37 39 40 42 43 43 42 42 43 42 41 40 40 40
30 30 31 33 32 33 34 34 33 30 29 28 28 28 29 31 32 30 29 28 26 33 33 33 36 36 37 38 40 41 42 42 43 42 42 40 40 40
28 28 30 32 32 32 33 34 33 33 31 30 28 29 29 32 32 29 29 29 28 32 32 30 33 32 35 37 38 39 41 42 42 42 41 41 39 39
28 28 28 29 31 31 30 29 30 31 32 32 32 31 32 33 33 32 31 30 31 32 32 27 32 31 33 34 37 39 39 40 41 41 40 40 39 38
28 29 29 30 32 33 30 27 28 30 34 35 35 34 34 35 34 31 28 28 26 28 29 29 30 30 32 33 35 38 39 39 39 40 39 39 39 38
29 30 31 31 32 32 30 28 27 29 30 31 31 33 34 33 33 32 31 27 28 26 28 28 29 29 27 29 33 33 33 35 38 38 38 38 38 38
27 28 29 31 32 32 32 28 27 30 29 30 30 30 31 31 32 33 32 31 29 28 32 31 27 26 29 29 30 30 30 31 32 34 36 36 37 37
26 28 29 30 31 30 29 29 29 29 28 28 29 29 29 30 31 32 32 32 33 32 34 32 31 29 28 30 29 28 27 27 28 30 30 33 34 36
29 29 30 30 29 26 28 28 27 27 27 26 27 28 30 31 32 31 31 32 32 32 33 32 31 30 30 30 30 29 31 28 29 27 28 29 30 32
28 27 25 25 23 24 25 25 25 25 25 26 26 28 29 30 30 30 29 29 29 30 32 33 32 32 29 30 29 30 26 30 29 26 26 26 28 29
26 24 22 20 19 21 23 23 23 24 23 25 27 25 25 27 28 29 30 29 28 28 29 31 32 33 32 32 29 31 31 26 28 28 26 26 27 28
23 20 17 16 16 18 18 21 22 22 22 24 25 28 25 24 27 27 28 28 27 27 28 31 31 30 28 29 32 30 28 29 28 27 26 25 26 28
19 18 16 16 16 17 17 18 19 22 22 21 22 23 26 27 27 26 26 29 28 29 29 30 30 29 25 23 26 29 28 27 26 26 25 25 25 26
17 16 15 15 15 16 15 15 16 21 20 19 19 20 21 25 24 25 25 23 25 25 25 27 28 28 27 25 23 24 29 27 25 23 25 26 27 28
15 15 15 15 14 15 14 14 14 18 18 16 17 17 19 23 24 25 23 25 25 24 23 22 23 25 25 26 21 19 21 29 27 24 24 23 23 24
13 13 14 14 13 14 14 14 14 14 18 17 15 15 16 17 18 19 17 17 19 19 21 23 24 26 23 22 17 16 18 20 25 25 27 26 24 21
11 12 12 12 12 12 13 12 13 14 15 16 15 14 12 13 16 14 15 16 18 19 19 19 20 21 21 20 18 17 17 18 19 20 20 27 27 28

GFSNE_sfc_temp_021.txt.gz
Temp
41 40 40 41 42 42 43 43 39 37 42 48 48 52 53 54 52 52 53 50 46 46 46 47 48 49 50 50 50 51 54 57 57 57 57 57 57 58
43 42 43 45 45 45 45 45 44 41 38 46 48 50 51 52 51 51 51 49 47 45 45 45 46 47 48 48 48 49 49 52 54 55 56 55 56 58
46 45 45 45 45 45 46 46 45 44 39 44 48 49 47 47 49 50 50 50 50 45 43 44 44 45 45 45 46 46 47 47 50 52 53 55 55 56
44 44 44 45 44 44 43 42 43 44 41 38 43 44 44 46 46 46 48 50 50 47 44 43 44 44 44 44 44 44 44 44 44 47 48 50 52 53
42 41 41 40 39 41 41 40 41 42 41 39 39 43 43 45 44 45 45 46 48 46 43 43 43 43 44 44 44 44 43 43 41 43 44 44 45 47
41 40 39 39 38 38 38 38 39 38 39 37 37 39 40 42 42 39 39 43 42 46 44 43 43 43 43 43 43 43 43 43 42 41 42 40 40 42
39 40 39 39 37 37 37 38 37 35 34 32 32 35 36 36 34 38 37 40 41 43 41 42 44 45 45 44 44 43 43 43 42 41 42 42 40 40
35 37 38 36 37 35 34 34 34 32 31 32 32 32 34 36 37 36 35 33 32 42 39 38 42 41 44 46 43 41 41 42 42 41 43 42 41 39
35 35 36 37 35 36 34 33 32 33 32 33 30 32 33 36 37 34 34 34 35 40 38 35 40 38 43 41 40 40 40 40 41 42 41 41 39 39
35 35 34 34 33 32 32 32 34 35 35 36 35 36 37 38 38 37 36 35 37 39 39 29 37 36 40 42 40 40 40 40 40 40 41 41 40 39
34 34 34 32 33 33 31 30 32 35 37 36 35 35 36 35 36 35 32 30 30 34 38 32 35 35 38 38 40 40 39 39 40 39 40 40 40 39
33 35 33 33 31 31 31 30 29 32 34 34 35 36 36 37 35 34 34 31 32 32 38 34 35 37 32 39 40 41 40 38 39 39 39 39 39 40
31 32 33 31 31 31 31 30 29 31 31 32 33 34 35 36 36 37 36 34 32 33 40 36 36 37 34 35 40 40 40 37 38 39 37 38 38 39
29 32 32 30 30 30 30 29 29 29 31 31 31 31 32 34 36 36 37 37 38 37 39 35 35 35 34 34 34 39 39 37 37 35 34 35 35 36
30 30 28 28 28 28 28 28 28 30 29 29 31 33 34 35 35 34 34 35 34 34 35 34 35 36 35 33 34 35 36 34 35 34 36 37 39 38
28 29 26 26 27 27 28 29 29 28 28 29 30 33 34 34 34 35 34 34 32 33 33 33 33 33 33 34 36 34 35 33 36 35 36 36 37 38
27 26 24 24 25 26 27 27 29 29 28 28 30 31 33 34 33 34 34 34 31 32 33 33 33 33 34 33 32 35 36 35 37 37 32 36 38 38
24 21 21 21 22 23 23 24 26 26 27 27 28 30 30 31 31 32 32 32 32 33 33 34 34 32 32 32 34 34 35 35 36 34 33 33 36 38
20 20 19 19 20 22 23 23 23 25 26 26 26 27 28 32 31 31 31 32 31 33 34 34 33 32 30 28 31 30 32 35 34 32 33 32 34 36
19 18 18 18 19 20 21 22 23 24 25 25 25 25 26 28 30 30 31 30 32 32 33 34 33 33 31 31 29 29 29 31 31 31 31 32 32 28
17 17 17 18 18 19 19 20 21 22 23 23 24 24 25 26 27 28 29 28 29 32 30 30 29 27 31 31 27 26 27 29 30 30 30 31 32 33
16 16 16 17 17 18 19 19 21 22 22 23 23 24 24 25 25 26 26 27 28 28 28 30 30 32 30 30 26 24 25 26 27 28 28 28 30 30
15 16 16 16 17 17 18 18 19 20 20 21 22 23 23 23 25 26 27 27 28 28 28 28 28 28 27 27 26 25 24 25 28 28 28 27 28 28

GFSNE_sfc_temp_024.txt.gz
Temp
46 45 45 44 43 42 42 41 38 36 42 51 53 59 60 59 57 57 56 52 48 47 47 48 48 49 50 51 51 51 52 53 54 56 58 58 59 59
47 45 45 46 46 46 45 46 45 44 42 50 52 55 57 58 56 55 55 50 48 46 45 46 46 47 48 48 48 49 50 51 52 52 55 56 57 58
48 47 48 51 51 51 51 50 48 48 43 48 52 54 53 53 54 54 54 54 55 46 45 45 45 45 45 45 45 46 47 48 49 50 51 54 56 57
48 48 48 50 48 49 49 48 48 49 46 43 48 50 50 52 52 51 52 55 54 51 45 45 45 44 44 43 43 44 44 45 46 47 47 48 52 54
47 46 46 46 45 46 46 46 47 48 47 45 44 48 49 50 49 50 50 51 53 49 45 43 44 44 44 43 43 43 43 43 43 43 43 43 46 48
45 45 45 44 44 44 44 43 44 44 44 43 43 44 46 48 48 46 45 49 48 52 49 45 45 45 43 43 42 43 43 43 43 43 42 41 41 41
44 44 44 43 39 39 40 41 42 42 42 39 36 38 40 40 40 43 40 43 45 46 45 45 47 49 50 44 44 44 42 42 43 43 43 41 40 40
41 42 43 41 41 37 36 35 36 34 33 33 34 34 36 38 40 39 39 37 35 44 42 42 44 43 47 50 46 43 43 42 42 42 42 41 41 41
41 41 42 43 39 38 36 35 34 33 32 34 32 34 35 38 38 36 37 36 37 42 40 37 41 40 43 45 42 41 40 40 40 40 41 41 40 40
40 41 39 37 36 35 34 34 35 36 37 37 37 39 39 39 38 38 38 38 39 41 40 33 39 38 42 43 41 41 40 40 40 40 40 40 40 39
36 36 37 35 35 34 33 32 35 37 39 38 37 37 36 36 37 38 33 33 32 36 41 37 38 37 40 40 43 41 41 40 39 40 40 40 40 39
34 36 35 35 33 32 32 31 30 34 35 36 36 37 37 37 35 36 36 32 33 33 40 36 37 37 33 41 42 41 43 39 38 39 40 40 40 42
32 34 36 31 30 31 31 32 30 32 32 33 34 35 36 37 38 39 39 36 34 34 41 39 38 38 37 37 40 41 42 41 42 41 38 39 40 40
30 33 33 30 30 30 30 30 29 29 32 32 33 34 35 36 38 39 39 39 40 39 42 36 36 39 37 35 35 41 42 42 39 38 39 39 38 38
32 30 29 28 29 29 30 29 29 30 30 30 31 34 36 38 37 38 38 38 38 38 38 38 37 39 36 36 36 38 37 39 38 37 36 37 38 38
29 30 29 27 28 28 30 31 31 32 30 30 31 34 37 37 35 37 36 37 34 35 36 37 35 35 34 36 37 36 37 35 36 36 37 36 38 41
27 28 28 27 27 29 29 30 31 31 30 31 31 32 34 36 34 36 34 35 33 35 36 36 34 34 34 34 33 36 37 38 40 38 35 36 38 39
26 25 24 23 25 27 27 28 28 28 29 30 30 31 30 32 33 34 33 33 32 35 37 38 35 32 32 33 34 36 36 36 38 37 37 34 37 39
23 23 22 22 23 25 26 26 26 27 28 29 29 29 30 30 31 32 33 33 32 34 35 37 35 34 31 30 32 30 33 36 36 34 34 34 35 36
22 21 21 21 22 23 24 24 25 27 27 28 28 28 28 29 29 30 31 30 32 34 36 35 34 34 32 31 31 29 30 31 34 34 34 35 32 29
21 21 21 21 22 23 23 24 24 25 26 26 27 27 27 28 29 29 29 29 30 31 31 31 31 29 34 33 29 28 29 30 31 32 34 32 32 33
20 21 22 22 22 22 23 23 25 25 25 25 25 26 27 28 28 28 29 29 29 30 30 32 34 34 32 31 29 27 28 29 29 28 28 28 29 30
20 21 21 21 21 21 22 23 24 24 24 24 25 26 27 26 28 29 29 29 29 30 30 31 33 34 31 31 30 28 27 28 30 30 28 29 29 30

GFSNE_sfc_temp_027.txt.gz
Temp
46 44 43 44 44 43 42 41 37 35 40 49 48 54 52 55 57 58 57 53 49 48 48 48 50 50 50 50 51 52 53 53 54 54 55 56 59 59
44 44 45 47 47 47 45 44 42 39 36 47 49 53 55 57 57 57 56 52 49 47 46 47 47 48 48 48 49 50 50 50 51 52 53 54 56 57
48 47 47 49 50 50 50 49 47 46 41 46 50 53 53 53 55 56 56 55 55 47 46 46 46 46 46 46 46 47 47 48 48 49 50 52 53 55
48 48 48 51 48 49 49 48 48 49 47 44 48 49 50 52 52 52 54 56 56 52 45 45 46 45 44 44 44 44 44 44 45 46 47 48 49 51
48 48 47 47 46 47 47 46 47 48 47 45 45 49 50 51 50 51 52 52 54 51 46 43 44 45 45 43 43 43 43 43 43 43 44 44 45 47
47 46 46 45 45 45 45 45 45 44 44 44 44 45 47 49 49 47 47 50 50 54 51 47 47 46 45 44 43 43 43 43 42 42 41 41 41 43
45 46 46 45 41 41 41 41 41 40 41 41 42 43 43 42 41 45 43 45 46 47 47 47 48 48 48 45 45 44 43 43 43 42 42 41 41 42
41 43 45 44 43 39 38 37 37 35 34 34 35 36 37 38 39 38 39 37 34 44 41 41 45 44 47 48 45 42 42 43 42 42 42 41 41 40
41 41 42 45 42 43 38 36 35 34 33 34 32 34 35 38 39 37 37 37 36 41 41 37 42 40 44 47 43 42 42 41 41 41 40 40 39 39
39 39 40 39 39 37 36 36 36 37 38 38 36 38 39 40 39 39 38 38 38 40 42 34 40 38 41 43 43 42 41 41 41 40 40 39 39 39
37 37 37 36 36 36 32 32 34 36 40 38 37 37 37 37 37 37 33 31 32 35 41 37 38 37 39 40 42 42 41 41 40 40 40 40 40 39
34 36 35 35 34 33 32 31 30 33 34 36 36 38 38 38 35 36 35 31 32 32 39 36 36 39 33 40 41 42 42 40 39 40 40 39 40 41
31 32 34 32 30 31 31 30 30 32 32 33 34 35 37 38 38 38 37 35 32 33 39 38 34 38 38 36 40 40 41 40 41 40 39 39 39 40
30 33 32 31 31 30 29 30 29 30 31 31 32 33 34 35 38 38 38 38 39 37 39 36 34 37 36 35 35 40 41 41 41 39 38 40 38 39
31 30 30 30 29 29 30 29 29 30 31 30 31 33 36 38 39 39 40 40 38 39 40 39 34 36 36 33 36 37 37 39 39 38 36 35 36 38
29 29 30 29 29 30 30 31 31 31 31 30 31 34 36 36 36 39 36 36 35 37 38 39 38 36 34 36 37 35 37 34 37 38 35 34 35 37
26 29 28 27 26 28 29 30 31 32 30 30 31 32 33 34 34 36 35 35 34 35 36 37 37 36 36 35 33 36 36 36 39 37 35 34 35 36
26 25 24 24 23 25 26 27 29 29 29 30 30 30 30 31 32 34 35 34 33 35 36 38 35 33 32 32 34 34 36 35 37 38 36 35 36 39
24 24 22 22 22 24 25 25 26 28 29 29 29 29 29 29 30 31 32 33 32 33 35 37 35 33 30 29 32 31 32 35 35 35 35 35 34 36
23 22 21 22 23 24 24 25 25 27 27 27 28 28 28 29 29 29 29 30 31 32 34 35 34 31 29 28 30 29 30 30 32 33 34 36 33 29
22 22 22 22 23 23 24 25 25 25 26 25 27 27 28 29 29 29 29 30 31 32 30 31 32 31 33 34 30 29 29 30 30 30 32 33 32 32
22 23 23 23 23 23 23 24 25 25 25 24 25 26 28 29 28 29 29 29 30 31 31 33 35 35 33 31 29 28 29 30 30 29 29 28 28 27
21 22 23 23 23 22 23 22 23 23 24 24 24 26 27 27 29 29 29 29 30 30 30 31 32 34 32 31 30 29 28 29 30 29 28 29 29 29

GFSNE_sfc_temp_030.txt.gz
Temp
41 42 42 42 41 40 40 39 35 31 33 41 42 48 46 47 48 48 51 49 48 48 48 49 50 51 51 51 51 51 52 53 54 54 54 55 56 58
41 41 42 43 43 43 42 41 40 36 32 40 43 46 49 53 50 50 50 51 48 47 46 47 48 49 49 49 49 49 50 51 52 52 52 53 54 55
42 43 42 44 43 43 42 42 41 40 34 39 44 46 47 47 50 49 50 48 46 46 45 46 46 46 47 47 47 47 48 48 49 49 50 51 52 53
43 42 42 47 40 40 40 40 40 41 38 36 39 41 43 45 46 45 50 53 48 49 46 45 46 46 45 44 44 44 45 45 45 46 47 48 49 50
40 40 41 41 39 38 39 40 40 43 40 38 37 38 39 41 42 43 43 43 49 50 46 44 44 45 45 44 44 44 44 43 43 43 43 44 45 47
39 39 40 40 39 38 37 35 38 35 35 35 35 36 37 40 40 38 35 39 40 50 49 46 44 45 45 44 44 43 43 43 43 42 42 41 41 43
36 39 39 41 42 39 39 35 34 32 31 32 31 32 33 33 33 33 32 32 34 37 36 37 38 39 41 43 44 44 43 43 43 42 42 41 40 41
33 35 38 40 40 40 39 37 35 30 29 29 30 28 30 32 33 30 30 28 28 34 32 30 35 35 38 39 43 43 43 42 42 42 42 41 41 40
33 34 35 40 37 37 36 36 35 35 32 30 28 29 29 31 32 31 29 30 30 33 33 31 29 32 35 42 42 42 42 42 42 41 41 40 39 39
31 32 32 31 33 33 32 31 32 34 35 36 32 31 33 35 35 34 33 32 31 32 33 29 30 32 31 33 41 43 42 42 41 40 40 40 39 39
31 31 32 31 34 35 31 29 30 31 37 38 35 36 35 36 36 33 29 27 26 29 32 32 31 31 32 33 34 41 41 41 41 41 40 40 39 39
29 31 33 33 32 31 29 28 26 28 30 31 31 33 35 35 35 34 31 28 27 26 31 30 31 28 27 31 35 33 31 39 40 40 40 40 40 36
27 28 30 32 30 32 31 28 27 30 29 29 29 30 31 32 33 35 35 32 29 28 33 33 29 27 29 30 28 31 33 35 35 35 39 40 40 39
26 27 28 30 31 30 30 30 30 29 27 26 27 29 30 31 33 33 34 35 34 32 34 34 31 31 30 28 27 29 30 32 33 29 31 36 38 39
27 28 28 29 30 29 30 30 29 28 27 28 28 29 30 31 33 33 34 35 33 34 35 34 33 33 29 29 28 27 28 28 32 33 29 33 28 33
26 25 26 28 27 27 28 29 29 29 27 28 28 29 31 30 30 33 28 26 27 30 32 33 31 32 31 28 28 28 28 26 30 34 31 29 33 35
24 25 25 24 23 24 25 26 27 27 26 27 27 28 29 29 28 28 32 28 24 24 27 31 31 31 29 29 27 28 28 28 29 30 33 33 34 34
24 22 21 21 21 22 23 23 24 25 25 26 26 27 26 27 27 28 27 27 30 27 27 28 32 29 30 30 33 30 28 28 29 32 33 31 31 33
21 21 20 20 20 21 22 22 22 24 26 25 26 25 26 26 26 27 28 26 23 24 27 32 32 30 28 26 30 31 29 30 30 30 33 33 28 28
21 20 19 20 20 21 21 21 22 23 23 23 24 24 24 25 26 26 27 26 28 27 27 26 24 24 24 23 25 24 31 28 29 26 27 31 28 31
20 20 20 20 20 21 20 20 21 22 22 21 22 22 24 26 25 26 26 26 26 28 27 24 23 26 26 26 28 24 25 31 28 26 26 30 28 27
17 19 20 20 20 19 19 19 20 20 20 20 20 21 22 24 24 25 25 24 26 26 26 27 29 28 26 27 24 20 23 24 28 29 29 28 25 24
14 17 19 19 19 19 19 18 18 17 17 17 17 19 21 22 23 25 23 25 25 21 21 24 25 26 25 26 24 20 18 22 27 24 24 29 29 29

GFSNE_sfc_temp_033.txt.gz
Temp
38 39 38 39 41 41 40 39 34 29 31 37 36 42 43 43 45 45 45 46 46 46 47 49 51 51 51 52 52 52 52 52 53 54 54 54 55 56
38 37 37 38 39 40 42 40 39 36 32 35 40 40 44 48 46 45 45 46 47 45 45 47 48 50 50 50 50 50 51 51 51 52 53 53 53 54
39 39 39 40 37 37 38 37 37 37 33 37 38 41 39 41 46 45 46 45 45 46 45 46 46 46 47 47 47 48 48 49 49 50 51 51 52 52
36 36 37 41 35 36 35 35 35 35 33 32 33 35 37 40 40 41 46 51 48 47 45 46 45 45 45 45 44 45 45 45 46 47 48 48 49 50
36 36 35 35 34 35 36 34 34 38 33 30 30 33 34 36 39 39 40 41 46 48 45 43 44 45 45 44 44 44 44 43 43 43 44 44 45 47
34 34 34 34 33 34 35 34 35 31 30 29 29 30 31 34 34 32 31 34 35 44 43 42 43 45 44 44 43 43 43 43 43 42 41 40 41 42
32 34 34 36 39 38 36 33 31 29 27 27 26 27 27 28 29 29 28 29 30 33 33 35 35 36 38 42 43 43 43 43 43 42 42 41 40 41
29 31 31 35 36 36 37 36 34 30 28 27 27 26 27 28 30 27 26 25 25 30 29 27 32 32 35 36 41 42 42 43 43 42 42 41 41 40
27 28 30 35 32 32 33 34 34 35 32 31 27 27 27 29 30 27 26 25 27 29 28 28 25 28 32 39 41 42 42 42 42 41 41 40 40 39
28 28 28 28 30 31 30 29 29 30 31 33 31 30 30 32 32 32 30 31 31 30 31 27 29 30 29 31 39 41 42 42 41 41 41 40 39 39
29 29 29 29 32 34 29 26 27 28 34 36 37 36 36 34 34 32 29 27 27 28 27 28 29 29 27 28 30 39 40 41 41 41 41 40 40 39
26 28 30 30 31 30 28 27 24 26 27 27 29 31 33 32 34 32 30 27 27 27 31 28 28 27 21 26 32 33 31 37 39 40 40 41 40 37
25 25 27 30 30 30 31 27 26 28 28 28 27 28 29 30 31 32 32 30 28 28 32 30 24 25 26 25 27 28 27 30 32 34 39 39 40 39
23 25 26 28 29 30 29 30 30 29 27 26 26 27 27 29 30 31 32 34 34 33 33 32 30 30 29 26 26 28 27 29 28 30 31 35 37 38
25 27 27 28 29 27 28 29 28 28 27 26 27 27 28 30 31 31 33 32 32 33 34 33 32 32 31 30 25 24 26 28 26 27 26 32 33 26
25 25 25 26 25 25 26 26 26 26 25 24 25 27 29 28 25 30 28 30 23 25 31 32 32 32 31 31 31 29 25 26 28 29 33 34 32 31
24 23 23 22 22 23 23 24 25 25 24 25 25 25 27 27 27 27 24 25 25 28 26 28 29 30 32 30 29 29 28 26 29 29 31 32 34 34
22 20 18 19 19 20 20 21 23 23 24 24 24 25 24 24 25 26 24 21 20 23 24 28 31 31 30 30 33 30 29 29 28 30 32 30 31 29
19 18 17 18 19 20 20 20 20 22 24 23 22 22 23 24 25 23 24 23 20 22 27 25 23 21 21 19 27 31 26 29 30 29 31 31 30 33
18 18 17 18 18 19 19 19 19 20 20 20 20 20 21 23 23 22 22 21 23 22 25 24 21 20 19 19 23 22 31 22 23 23 24 29 28 31
13 17 18 18 18 18 16 17 17 17 16 16 17 18 19 22 21 23 22 21 21 23 23 21 25 24 23 22 23 15 16 30 28 22 23 21 27 27
7 13 17 18 16 16 16 15 15 14 13 14 14 15 17 20 20 22 21 21 20 16 19 23 26 28 21 23 20 10 14 24 26 30 29 27 25 23
3 8 11 13 14 15 16 14 13 11 11 11 12 13 14 16 18 20 21 20 20 17 20 22 23 23 22 24 22 15 15 14 21 20 19 29 29 29

GFSNE_sfc_temp_036.txt.gz
Temp
36 36 36 36 37 36 36 38 35 30 32 33 33 39 39 40 42 42 44 44 44 44 44 45 47 50 52 52 53 53 53 53 53 53 53 54 54 55
39 37 36 36 36 36 38 37 37 34 31 34 35 37 39 44 45 43 43 45 44 44 44 44 45 46 49 49 50 51 52 52 52 52 52 52 53 54
35 35 35 37 35 34 34 34 33 33 31 32 35 36 35 36 40 41 43 42 43 44 44 44 44 45 46 47 48 49 49 50 50 50 50 51 53 53
34 34 35 38 33 32 31 31 32 34 31 28 30 32 33 35 35 35 42 46 44 46 45 45 45 45 45 44 44 45 46 46 47 48 49 49 50 51
33 33 33 32 31 31 31 31 32 36 31 29 28 30 31 32 32 35 36 36 42 45 43 43 43 44 44 44 44 44 44 43 43 44 44 45 46 48
31 31 30 30 30 30 31 30 31 29 29 28 27 28 29 31 30 29 29 31 32 40 42 41 42 44 44 44 43 43 43 43 42 42 42 41 41 43
30 30 31 33 36 35 33 31 29 28 27 27 27 26 26 25 25 27 27 27 28 31 32 33 33 34 36 40 42 44 43 43 43 42 42 40 40 41
27 29 29 32 31 33 33 34 33 30 28 27 27 26 26 25 26 25 24 23 21 29 28 26 31 31 33 35 40 41 42 42 43 42 42 41 41 40
26 27 29 33 31 30 31 32 32 33 31 30 28 27 27 27 26 25 24 24 24 29 27 26 24 26 30 37 40 41 41 42 42 42 41 40 40 39
27 27 27 27 27 29 29 28 28 28 29 30 29 29 29 30 29 29 28 26 28 32 28 24 24 26 26 30 38 40 41 41 41 41 41 40 40 39
28 28 28 27 30 32 28 26 27 27 33 34 34 35 35 34 34 32 29 28 26 28 25 26 26 23 24 27 29 37 39 40 40 40 40 40 40 39
25 27 29 28 29 30 27 25 24 26 26 26 27 28 31 30 32 30 28 25 25 24 28 26 24 24 21 24 30 30 30 36 38 39 40 40 40 36
24 24 25 28 29 30 30 27 27 29 28 27 28 27 27 28 29 30 30 29 27 27 31 30 24 23 27 23 23 25 25 25 27 30 38 39 40 39
22 24 25 29 29 29 27 29 29 28 27 27 26 26 27 28 29 31 32 32 33 32 33 32 28 26 23 22 22 24 23 25 23 26 27 34 36 38
24 26 27 28 27 26 27 27 26 26 25 24 25 26 28 29 30 30 32 31 31 32 33 33 32 32 30 27 28 28 25 24 21 21 21 24 29 30
23 24 24 25 24 24 24 25 25 24 24 24 24 26 28 28 27 28 26 25 26 27 29 31 32 32 30 31 31 29 31 27 21 28 29 23 31 33
18 17 20 20 20 21 22 22 23 24 23 23 23 24 25 26 26 25 22 22 22 23 25 27 27 31 32 31 28 29 28 29 25 27 25 31 32 34
16 12 15 17 17 19 18 19 21 21 22 22 22 22 22 23 24 23 21 18 17 20 24 27 29 30 30 30 32 29 30 29 24 25 29 30 31 33
11 11 13 15 16 18 17 18 18 19 20 19 19 19 20 21 23 20 21 22 19 21 25 21 20 18 16 14 27 30 24 22 28 28 27 30 29 32
12 9 13 15 17 17 17 16 17 16 15 16 16 17 17 19 20 21 21 19 18 21 23 22 20 20 18 17 20 21 30 18 21 18 24 26 26 31
10 10 9 15 15 16 14 14 11 11 11 10 13 14 15 18 18 20 18 18 16 20 19 18 20 23 22 18 18 16 14 29 28 24 22 22 24 26
4 8 9 11 11 12 13 11 11 10 10 10 9 10 11 15 16 17 18 15 16 14 16 20 25 25 22 23 18 13 19 24 26 29 29 27 23 21
1 5 4 4 8 10 13 11 10 6 9 9 9 10 9 11 14 14 14 13 15 13 17 18 21 23 22 23 23 13 12 12 16 18 15 28 29 29

GFSNE_sfc_temp_039.txt.gz
Temp
36 37 37 36 36 35 35 36 33 28 31 35 32 37 37 37 40 40 40 44 45 44 44 43 45 47 47 49 49 53 54 54 54 53 53 54 54 54
36 35 34 34 34 33 34 33 32 31 27 32 33 34 37 41 42 37 39 45 45 44 43 42 43 45 46 45 46 46 49 53 53 52 52 52 53 54
32 32 33 35 34 35 32 32 31 30 28 31 32 34 34 34 36 36 39 38 39 43 43 44 42 42 44 44 44 45 45 48 51 52 52 52 52 53
31 31 32 36 31 30 30 29 29 30 29 28 29 30 31 33 33 32 38 42 37 44 43 44 43 43 42 43 43 44 45 46 47 48 49 50 51 52
31 30 30 29 28 28 28 28 29 32 29 28 28 29 29 30 30 31 32 32 39 42 42 43 43 44 44 44 44 43 43 43 43 44 45 46 47 49
31 30 29 28 28 28 29 28 30 29 28 28 28 28 30 30 29 28 27 29 30 37 39 39 41 42 43 43 43 43 43 43 43 42 42 42 42 44
30 30 30 31 35 33 31 28 27 28 28 26 26 27 26 25 25 27 25 25 27 29 30 31 33 35 35 39 41 43 43 43 43 42 42 41 40 41
27 29 29 31 30 33 32 32 31 27 26 26 26 25 26 25 25 25 23 22 21 27 26 25 29 30 33 34 39 41 42 42 43 42 42 41 40 40
26 27 28 31 30 29 29 31 31 32 30 27 26 27 26 27 26 24 23 23 24 27 26 26 23 25 30 35 39 40 41 41 42 41 41 40 40 39
27 27 26 26 27 28 28 27 28 29 30 30 29 28 29 29 28 29 28 27 27 27 30 26 24 25 27 27 36 38 40 40 40 41 41 40 39 39
27 27 27 25 28 30 27 25 26 27 32 34 34 34 34 34 33 30 27 26 24 24 25 24 25 22 22 26 28 36 38 39 39 40 40 40 39 39
25 26 27 28 29 29 27 25 23 27 28 28 28 29 30 30 32 29 25 24 24 20 27 25 24 24 19 22 23 25 25 36 38 39 39 40 40 35
23 23 25 28 29 30 29 26 26 27 27 28 28 28 28 28 27 28 28 27 25 25 29 28 23 22 24 22 22 23 25 24 25 29 37 38 39 38
22 24 24 29 29 28 27 28 28 26 25 25 26 27 27 28 29 30 30 30 31 31 32 31 27 25 26 21 25 24 23 21 21 21 22 31 36 38
24 26 27 27 26 25 26 26 25 24 23 22 23 25 26 28 29 30 31 32 32 32 33 32 31 31 29 28 28 28 29 28 20 19 19 21 23 30
21 20 19 23 22 23 23 23 23 23 23 22 22 25 27 27 27 28 27 27 25 25 31 29 31 32 30 30 30 29 30 27 22 20 28 21 28 29
13 11 14 17 18 20 20 21 21 22 20 21 21 21 23 25 25 27 25 23 21 22 24 26 29 32 32 31 29 28 26 27 25 24 24 21 24 28
13 7 3 5 13 17 16 17 19 18 18 19 19 19 20 20 23 24 23 20 18 22 23 24 23 27 29 28 32 29 29 30 29 26 24 27 29 27
8 5 1 5 8 16 16 16 15 15 16 16 16 16 18 19 21 22 21 20 20 23 23 25 23 18 15 12 22 30 25 22 19 18 26 29 30 28
10 6 3 6 8 15 15 14 14 12 11 11 13 13 14 16 18 19 19 16 16 19 21 22 21 24 24 19 21 18 29 25 23 21 18 19 23 30
9 9 5 6 7 10 10 10 7 8 9 7 9 10 10 13 15 17 17 13 13 18 17 16 18 23 23 19 15 15 18 28 28 25 25 21 22 27
4 7 8 7 3 4 3 4 8 6 7 8 7 7 8 10 13 14 15 14 14 14 15 19 22 23 19 20 17 14 21 24 27 27 28 27 19 17
3 5 2 0 1 1 6 4 5 1 6 7 7 8 7 7 12 12 11 12 14 13 14 16 19 20 19 20 20 16 11 14 17 17 14 27 29 29